Flag for Germany Weather past 2 weeks in Ahrensburg, Schleswig-Holstein, Germany

Now
57 °F

Passing clouds.


Feels Like: 57 °F
Forecast: 53 / 64 °F
Wind: 2 mph from North

Location: Hamburg-Fuhlsbuettel

Current Time: Aug 31, 2014 at 12:23:28 AM

Latest Report: Aug 30, 2014 at 11:50 PM


Visibility: N/A

Pressure: 29.89 "Hg

Humidity: 100%

Dew point: 57 °F

Location of AhrensburgLocation

Historic Weather in Ahrensburg — Graph

°F

Ahrensburg temperature yesterday

Maximum temperature yesterday: 68 °F (at 3:20 PM)
Minimum temperature yesterday: 55 °F (at 3:20 AM)
Average temperature yesterday: 61 °F

Past Weeks' High & Low Weather Summary

 TemperatureHumidityPressure
High73 °F (Aug 28, 2:20 PM)100% (Aug 16, 3:50 AM)30.04 "Hg (Aug 16, 3:50 AM)
Low39 °F (Aug 26, 4:50 AM)33% (Aug 28, 2:50 PM)29.47 "Hg (Aug 18, 10:20 AM)
Average57 °F81%29.85 "Hg
* Reported Aug 15 11:20 PM — Aug 30 11:20 PM, Ahrensburg, Weather by CustomWeather, © 2014

Note: Actual official high and low records may vary slightly from our data, if they occured in-between our weather recording intervals... More about our weather records

Advertising

Ahrensburg weather history for previous 24 hours

 ConditionsComfort  
Time TempWeatherWind HumidityBarometerVisibility
11:20 PM
Aug 30
57 °FPassing clouds.5 mph100%29.92 "HgN/A
10:50 PM57 °FPassing clouds.1 mph100%29.92 "HgN/A
10:20 PM57 °FPartly cloudy.2 mph100%29.92 "HgN/A
9:50 PM59 °FPassing clouds.5 mph94%29.92 "HgN/A
9:20 PM59 °FPassing clouds.3 mph94%29.92 "HgN/A
8:50 PM57 °FPartly sunny.2 mph100%29.92 "HgN/A
8:20 PM59 °FScattered clouds.7 mph94%29.92 "HgN/A
7:20 PM59 °FRain showers. Broken clouds.9 mph88%29.92 "Hg6 mi
6:50 PM64 °FSprinkles. Broken clouds.14 mph83%29.92 "HgN/A
6:20 PM64 °FBroken clouds.14 mph83%29.92 "HgN/A
5:50 PM66 °FBroken clouds.17 mph78%29.92 "HgN/A
5:20 PM66 °FBroken clouds.15 mph83%29.92 "HgN/A
4:50 PM66 °FBroken clouds.15 mph78%29.92 "HgN/A
4:20 PM68 °FScattered clouds.15 mph69%29.92 "HgN/A
3:50 PM68 °FPartly sunny.14 mph78%29.92 "HgN/A
3:20 PM68 °FBroken clouds.14 mph69%29.92 "HgN/A
2:50 PM66 °FBroken clouds.13 mph78%29.95 "HgN/A
2:20 PM66 °FBroken clouds.14 mph78%29.95 "HgN/A
1:50 PM63 °FLight rain. Broken clouds.12 mph88%29.95 "HgN/A
1:20 PM63 °FBroken clouds.15 mph83%29.95 "HgN/A
12:50 PM63 °FBroken clouds.12 mph88%29.95 "HgN/A
12:20 PM61 °FBroken clouds.10 mph94%29.95 "HgN/A
11:50 AM61 °FDrizzle. Broken clouds.14 mph94%29.95 "Hg3 mi
11:20 AM63 °FPartly sunny.14 mph83%29.95 "HgN/A
10:50 AM63 °FPartly sunny.14 mph83%29.95 "HgN/A
10:20 AM63 °FPartly sunny.12 mph83%29.95 "HgN/A
9:50 AM63 °FBroken clouds.13 mph83%29.92 "HgN/A
9:20 AM63 °FBroken clouds.14 mph83%29.95 "HgN/A
8:50 AM61 °FSunny.12 mph88%29.92 "Hg10 mi
8:20 AM61 °FSunny.10 mph88%29.92 "Hg10 mi
7:50 AM59 °FPartly sunny.9 mph94%29.92 "HgN/A
7:20 AM59 °FPassing clouds.7 mph94%29.92 "HgN/A
6:50 AM59 °FPartly cloudy.6 mph88%29.92 "HgN/A
6:20 AM57 °FClear.7 mph94%29.92 "Hg10 mi
5:50 AM57 °FClear.5 mph94%29.92 "Hg10 mi
5:20 AM59 °FClear.6 mph88%29.92 "Hg10 mi
4:50 AM57 °FClear.5 mph94%29.95 "Hg10 mi
4:20 AM55 °FFog.5 mph100%29.95 "HgN/A
3:50 AM55 °FFog.6 mph100%29.95 "HgN/A
3:20 AM55 °FCool.5 mph100%29.95 "HgN/A
2:50 AM57 °FFog.3 mph94%29.95 "HgN/A
2:20 AM57 °FCool.2 mph100%29.95 "HgN/A
1:50 AM57 °FCool.2 mph100%29.95 "HgN/A
1:20 AM57 °FCool.2 mph100%29.95 "HgN/A
12:50 AM57 °FCool.5 mph100%29.95 "HgN/A
12:20 AM57 °FCool.2 mph100%29.95 "HgN/A
Weather by CustomWeather, © 2014

See weather overviewHow to use our weather pages